CAPE
194 298 296 182 50 10 16 20 9 2 5 0 0 0 26 55 70 227 0 0 0 24 14 1 0 0 133 223 153 127 282 324 257 172 19 8 3 2 0 0 1 0 1 0 0 0 0 0 0
319 306 97 99 12 18 20 34 2 17 47 0 6 18 61 125 0 0 0 0 0 19 7 4 0 0 57 132 113 129 229 225 241 301 231 57 13 6 6 4 5 3 2 1 0 0 0 0 0
75 49 85 70 8 16 6 4 12 53 31 24 61 131 144 9 0 0 0 0 0 9 7 0 0 0 47 49 86 64 24 5 0 0 0 0 0 0 0 1 4 5 4 3 3 0 0 0 0
3 34 39 16 29 33 26 9 10 54 0 14 76 133 44 0 0 0 0 0 0 1 0 0 0 0 62 38 0 0 0 0 0 0 0 0 0 0 0 0 0 3 3 8 7 2 0 0 0
0 46 53 33 39 58 34 28 54 43 11 46 84 110 73 0 0 0 0 0 2 1 4 0 0 0 7 8 0 0 0 0 0 0 0 0 0 0 0 0 0 0 0 0 0 0 0 0 0
10 22 33 42 22 58 71 42 50 42 33 63 75 75 24 3 0 0 0 0 8 0 31 0 0 0 12 0 0 0 0 0 0 0 0 0 0 0 0 0 0 0 0 0 0 0 0 0 0
9 7 43 40 44 49 30 4 68 37 23 33 51 20 5 2 0 0 0 0 8 1 28 11 8 22 0 0 0 0 0 0 0 0 0 0 0 0 0 0 0 0 0 0 0 0 0 0 0
14 1 44 41 19 29 0 9 22 30 0 26 0 0 0 0 0 0 0 0 15 5 4 3 2 0 0 0 0 0 0 0 0 0 0 0 0 0 0 0 0 0 0 0 0 0 0 0 0
14 0 6 59 57 6 0 0 0 0 0 0 0 0 3 0 0 0 0 0 3 5 24 21 6 4 4 5 0 0 0 0 0 0 0 0 1 0 0 0 0 0 0 0 0 0 0 0 0
18 5 0 44 17 1 0 0 0 0 0 0 0 0 22 0 0 0 0 0 2 1 3 7 16 13 5 12 1 9 12 9 4 3 3 0 0 0 0 0 0 0 0 0 0 0 0 0 0
23 19 2 0 0 0 0 0 0 0 0 0 0 0 1 0 0 0 0 0 2 3 2 1 19 14 6 8 14 7 7 4 1 1 4 1 0 0 0 0 0 0 0 0 0 2 1 0 1
19 15 0 0 0 0 0 0 0 0 0 0 0 10 0 0 0 0 0 0 0 0 0 2 2 7 10 14 7 4 0 0 0 0 1 0 0 0 0 0 0 0 4 5 9 11 12 11 17
10 14 10 0 0 0 0 0 0 0 0 0 1 6 10 0 0 0 0 0 0 0 0 0 1 2 4 1 0 0 0 0 0 0 0 0 0 10 1 19 45 55 41 24 13 12 10 9 16
24 18 27 8 0 0 0 0 0 0 0 0 21 3 30 11 0 1 0 0 0 0 0 0 0 0 0 0 0 0 0 1 9 40 56 39 50 66 68 57 35 39 66 2 13 18 13 14 11
10 31 39 11 6 0 0 0 0 0 0 10 30 22 25 24 21 1 0 0 0 0 0 0 0 0 0 0 0 1 32 49 99 111 104 107 94 87 88 44 27 38 9 10 18 25 4 5 4
17 20 36 6 16 0 0 0 0 0 3 18 32 1 19 13 22 4 11 0 0 0 0 0 0 0 0 1 2 62 133 138 114 116 112 63 62 56 57 14 1 2 7 4 0 0 0 0 0
11 2 2 22 16 0 0 0 0 0 12 58 43 2 18 7 21 155 55 9 1 0 0 0 0 14 58 120 177 179 177 112 52 12 1 0 0 0 1 0 0 0 0 0 0 0 0 0 0
2 2 1 18 0 0 0 0 0 0 6 18 100 46 26 36 85 153 92 60 25 0 0 0 40 102 192 247 251 145 66 0 0 0 0 0 0 0 0 0 0 0 0 0 0 0 0 0 0
9 8 1 13 0 0 0 0 0 0 0 4 92 101 86 76 147 164 124 147 151 164 160 177 196 226 245 233 217 107 3 0 0 0 0 0 0 0 0 0 0 0 0 0 0 0 0 0 0
18 7 3 1 0 0 1 0 0 0 4 4 89 115 57 60 173 173 161 185 176 137 176 197 201 90 222 283 261 184 0 0 0 0 0 0 0 0 0 0 0 0 0 0 0 0 0 0 0
3 3 3 3 4 0 5 0 0 0 0 1 38 127 76 75 82 174 118 9 6 0 0 0 0 0 0 8 0 0 0 0 0 0 0 0 0 0 0 0 0 0 0 0 0 0 0 0 0
1 0 0 8 5 1 1 1 0 0 0 0 2 108 142 97 27 7 0 0 0 0 0 0 0 0 0 0 0 0 0 0 0 0 0 0 0 0 0 0 0 0 0 0 0 0 0 0 0
7 0 0 5 6 4 0 3 1 0 0 0 0 83 195 171 19 0 0 0 0 0 0 0 0 0 0 0 0 0 0 0 0 0 0 0 0 0 0 0 0 0 0 0 0 0 0 0 0
24 19 0 9 6 0 1 2 0 3 0 0 0 53 186 132 0 0 0 0 0 0 0 0 0 0 0 0 0 0 0 0 0 0 0 0 0 0 0 0 0 0 0 0 0 0 0 0 0
36 18 0 0 0 0 0 1 4 3 0 0 0 31 83 0 0 0 0 0 0 0 0 0 0 0 0 0 0 0 0 0 0 0 0 0 0 0 0 0 0 0 0 0 0 0 0 0 0
9 22 0 3 0 0 0 0 0 0 0 0 0 0 0 0 0 0 0 0 0 0 0 0 0 0 0 0 0 0 0 0 0 0 0 0 0 0 0 0 0 0 0 0 0 0 0 0 0
48 10 0 0 0 0 0 0 0 0 0 0 0 0 0 0 0 0 0 0 0 0 0 0 0 0 0 0 0 0 0 0 0 0 0 0 0 0 0 0 0 0 0 0 0 0 0 0 0
16 0 0 0 1 2 0 0 0 0 0 0 0 0 0 0 0 0 0 0 0 0 0 0 0 0 0 0 0 0 0 0 0 0 0 0 0 0 0 0 0 0 0 0 0 0 0 0 0
0 1 0 0 0 0 0 0 0 0 0 0 0 0 0 0 0 0 0 0 0 0 0 0 0 0 0 0 0 0 0 0 0 0 0 0 0 0 0 0 0 0 0 0 0 0 0 0 0
1 1 0 0 0 0 0 0 0 0 0 0 0 0 0 0 0 0 0 0 0 0 0 0 0 0 0 0 0 0 0 0 0 0 0 0 0 0 0 0 0 0 0 0 0 0 0 0 0
CIN
-171 -112 -54 -71 -24 -12 -5 -5 -1 -3 -10 0 0 0 -8 -46 -29 -23 -1 0 0 -1 0 -1 0 0 -55 -31 -53 -74 -34 -28 -42 -64 -138 0 0 0 0 0 0 0 0 0 0 0 0 0 0
-44 -70 -71 -21 -6 -4 -7 -3 -3 -2 -16 0 -25 -49 -7 -50 0 0 0 0 0 -1 -2 -1 0 0 -81 -49 -64 -62 -44 -48 -44 -24 -29 -91 0 0 0 0 0 0 0 0 0 0 0 0 0
-137 -155 -23 -6 -4 -2 -23 -9 -2 -27 -38 -24 -19 -30 -18 -33 0 0 0 0 0 -1 -1 -1 0 0 -81 -86 -58 -73 -123 -42 0 0 0 0 0 0 0 -1 -1 0 0 0 0 0 0 0 0
-119 -90 -43 -11 -2 -9 -7 -3 -12 -40 0 -25 -7 -30 -111 -1 0 0 0 0 0 -1 0 0 0 0 -70 -92 -3 0 0 0 0 0 0 0 0 0 0 0 0 -2 -2 0 0 0 0 0 0
-18 -56 -15 -2 -5 -2 -3 -8 -24 -25 -16 -18 -14 -28 -81 0 0 0 0 0 -2 -1 0 0 0 0 -1 -8 0 0 0 0 0 0 0 0 0 0 0 0 0 0 0 0 0 0 0 0 0
-25 -39 -2 -3 -2 -2 -4 -27 -26 -12 -12 -21 -10 -22 -69 0 0 0 0 0 -1 -1 0 0 0 0 0 0 0 0 0 0 0 0 0 0 0 0 0 0 0 0 0 0 0 0 0 0 0
-16 -24 -2 -1 -1 -1 -8 -56 -26 -15 -20 -15 -9 -2 -6 -1 0 0 0 0 -2 -1 -1 -1 -1 -1 0 0 0 0 0 0 0 0 0 0 0 0 0 0 0 0 0 0 0 0 0 0 0
-17 -39 -3 -2 -6 -4 0 -65 -49 -25 0 -63 0 0 0 0 0 0 0 0 -1 -1 -1 0 -1 0 0 0 0 0 0 0 0 0 0 0 0 0 0 0 0 0 0 0 0 0 0 0 0
-42 0 -2 -3 -1 -23 0 -13 0 0 0 0 0 0 -17 0 0 0 0 0 -1 -3 -2 -1 -1 -1 0 0 0 0 0 0 0 0 0 0 0 0 0 0 0 0 0 0 0 0 0 0 0
-11 -2 -4 -16 -17 -10 0 0 0 0 0 0 0 0 -46 0 0 0 0 0 -3 0 -4 -1 0 -1 0 0 0 -1 -1 -2 -3 0 -1 0 0 0 0 0 0 0 0 0 0 0 0 0 0
-2 -3 -5 0 0 0 0 0 0 0 0 0 0 0 0 0 0 0 0 0 0 -1 0 -1 0 0 -1 -1 -1 0 0 0 0 0 0 -1 0 0 0 0 0 0 0 0 0 0 0 0 0
-4 -3 0 0 0 0 0 0 0 0 0 0 0 -125 0 0 0 0 0 0 0 0 0 0 -1 -1 0 0 -1 0 0 0 0 0 0 0 0 0 0 0 -1 0 0 0 0 0 0 0 0
-2 -8 -34 -20 0 0 0 0 0 0 0 0 -9 -169 -146 0 0 0 0 0 0 0 0 0 -1 -1 -1 0 0 0 0 0 0 0 0 0 0 -20 0 -8 -19 -9 -7 -7 -2 0 0 -1 0
-2 -5 -23 -44 0 0 0 0 0 0 0 0 -175 -166 -166 -141 -1 0 -1 0 0 0 0 0 0 0 0 0 0 0 0 0 -11 -42 -43 -60 -48 -23 -13 -10 -11 -6 -4 0 0 0 -1 0 -4
-3 -3 -12 -17 -44 0 0 0 0 0 0 -132 -162 -203 -175 -136 -98 -1 0 0 0 0 0 0 0 0 0 0 0 0 -21 -33 -14 -15 -19 -17 -20 -17 -8 -6 -9 -12 -2 -3 -1 0 0 -1 -1
0 -7 0 -19 -8 0 0 0 0 -12 -60 -125 -149 -15 -200 -181 -122 -21 -68 -1 0 0 0 0 0 0 0 0 -2 -16 -11 -8 -13 -18 -16 -49 -44 -29 -10 -44 -4 -1 -1 0 0 0 0 0 0
0 0 0 -2 -10 -6 0 0 0 0 -67 -72 -144 -73 -200 -185 -142 -13 -31 -30 -2 0 0 0 0 -24 -36 -18 -5 -3 -8 -16 -43 -35 0 0 0 0 0 0 0 0 0 0 0 0 0 0 0
0 0 -2 -1 0 0 0 0 0 0 -70 -45 -67 -166 -198 -161 -90 -23 -42 -38 -42 0 0 0 -62 -34 -23 -15 -12 -24 -64 0 0 0 0 0 0 0 0 0 0 0 0 0 0 0 0 0 0
0 0 0 -1 -1 0 0 0 0 0 0 -60 -36 -72 -111 -105 -38 -29 -32 -30 -26 -17 -23 -20 -21 -14 -15 -16 -15 -45 -13 0 0 0 0 0 0 0 0 0 0 0 0 0 0 0 0 0 0
-2 0 0 -3 0 0 -1 0 0 0 -48 -33 -18 -54 -88 -72 -31 -41 -37 -36 -36 -34 -23 -16 -24 -58 -11 -1 -1 -15 0 0 0 0 0 0 0 0 0 0 0 0 0 0 0 0 0 0 0
0 0 0 0 -4 0 -5 -1 0 0 0 -13 -34 -34 -67 -69 -91 -51 -75 -69 -49 0 0 0 0 0 0 -49 0 0 0 0 0 0 0 0 0 0 0 0 0 0 0 0 0 0 0 0 0
0 0 0 0 0 0 -4 0 0 0 0 0 -15 -49 -50 -57 -116 -106 0 0 0 0 0 0 0 0 0 0 0 0 0 0 0 0 0 0 0 0 0 0 0 0 0 0 0 0 0 0 0
-1 0 0 0 0 0 0 0 -11 -1 0 0 0 -56 -41 -44 -128 0 0 0 0 0 0 0 0 0 0 0 0 0 0 0 0 0 0 0 0 0 0 0 0 0 0 0 0 0 0 0 0
-6 -1 -1 -1 0 0 0 0 0 -3 0 0 0 -51 -31 -64 0 0 0 0 0 0 0 0 0 0 0 0 0 0 0 0 0 0 0 0 0 0 0 0 0 0 0 0 0 0 0 0 0
-4 0 -1 0 0 0 0 0 -1 -5 0 -22 0 -97 -94 0 0 0 0 0 0 0 0 0 0 0 0 0 0 0 0 0 0 0 0 0 0 0 0 0 0 0 0 0 0 0 0 0 0
-40 -5 0 -5 0 0 0 0 0 0 0 0 0 0 0 0 0 0 0 0 0 0 0 0 0 0 0 0 0 0 0 0 0 0 0 0 0 0 0 0 0 0 0 0 0 0 0 0 0
-4 -15 0 0 0 0 0 0 0 0 0 0 0 0 0 0 0 0 0 0 0 0 0 0 0 0 0 0 0 0 0 0 0 0 0 0 0 0 0 0 0 0 0 0 0 0 0 0 0
-53 0 0 0 -14 -6 0 0 0 0 0 0 0 0 0 0 0 0 0 0 0 0 0 0 0 0 0 0 0 0 0 0 0 0 0 0 0 0 0 0 0 0 0 0 0 0 0 0 0
-2 0 0 -10 0 0 0 0 0 0 0 0 0 0 0 0 0 0 0 0 0 0 0 0 0 0 0 0 0 0 0 0 0 0 0 0 0 0 0 0 0 0 0 0 0 0 0 0 0
0 0 0 0 0 0 0 0 0 0 0 0 0 0 0 0 0 0 0 0 0 0 0 0 0 0 0 0 0 0 0 0 0 0 0 0 0 0 0 0 0 0 0 0 0 0 0 0 0
Wind_Speed
16 14 17 20 23 22 26 19 17 17 17 15 11 17 12 12 16 13 4 10 8 10 15 20 18 18 5 5 11 17 17 15 13 10 12 13 17 20 21 21 21 20 20 21 21 21 20 16 17
20 18 20 23 26 22 26 16 20 17 13 11 12 14 17 14 11 3 5 6 9 8 14 12 12 13 11 10 11 12 12 11 9 9 10 13 15 17 18 19 20 20 20 20 21 21 20 19 20
20 21 24 24 29 27 23 16 15 14 12 16 15 15 15 14 5 3 4 5 3 6 5 6 7 8 9 9 10 10 10 9 8 9 11 13 14 15 16 17 19 20 19 20 20 21 21 21 21
21 19 23 29 28 21 20 14 14 12 17 18 17 13 11 12 8 7 3 5 3 2 4 8 7 9 7 9 9 9 9 9 9 10 11 12 14 15 16 17 18 19 19 20 19 21 22 22 23
24 22 29 31 32 21 21 15 14 15 15 16 19 14 12 11 8 5 3 4 3 3 3 5 7 7 6 6 7 8 9 9 10 10 11 12 14 15 16 17 18 18 19 19 20 21 22 23 23
27 24 30 33 31 21 19 17 16 16 14 13 17 11 13 12 4 2 2 2 3 3 4 4 5 6 7 8 8 8 9 10 10 10 11 12 13 15 16 17 18 18 19 20 20 20 21 22 23
29 29 35 33 29 21 20 20 19 17 16 16 15 14 14 12 5 2 2 1 1 2 2 3 3 3 5 6 7 8 9 10 10 11 12 13 14 15 16 17 17 18 19 19 19 19 19 20 22
26 27 37 31 28 22 18 17 19 19 16 13 17 18 16 10 6 3 2 2 3 1 0 1 2 2 4 5 6 7 9 10 11 11 12 13 14 15 16 16 17 19 20 19 19 19 20 20 19
25 34 36 32 29 20 17 18 16 16 15 16 15 16 12 5 5 5 3 4 4 10 10 1 1 2 3 5 5 7 8 10 11 12 12 13 14 15 16 17 18 18 19 18 18 18 19 20 17
33 39 36 23 22 19 18 20 15 17 16 16 13 11 2 6 7 7 6 3 3 2 7 11 6 3 3 5 6 7 8 9 10 12 13 14 15 16 17 15 16 16 17 17 17 19 19 18 23
39 42 27 21 22 19 18 18 20 20 19 18 15 7 3 5 7 6 4 3 3 2 4 5 2 3 4 5 6 7 8 10 11 12 13 14 15 16 16 18 18 19 16 19 19 20 21 24 23
41 38 26 21 23 20 20 20 20 22 15 16 15 5 3 5 7 7 5 4 3 3 2 1 2 3 4 5 6 7 8 9 10 11 12 14 15 17 18 18 19 18 19 21 21 22 23 24 25
44 33 31 25 27 25 24 23 22 22 21 17 10 6 4 5 7 6 5 3 3 3 2 2 2 2 3 4 6 8 9 9 11 12 13 14 16 17 18 19 20 21 22 22 24 25 26 27 28
29 31 30 26 29 27 27 26 22 18 18 16 11 11 9 7 7 7 7 6 4 3 2 2 1 2 3 4 6 7 9 10 11 13 14 15 16 18 20 20 22 22 23 25 25 27 28 27 28
28 36 39 37 32 30 26 30 27 19 17 16 14 12 13 10 9 8 8 6 4 3 2 2 2 2 3 4 5 7 8 10 12 13 15 17 18 20 21 22 23 24 25 27 28 27 28 29 29
33 33 43 41 35 30 26 31 25 18 18 18 16 14 14 13 12 9 7 5 4 3 3 2 1 1 3 5 5 7 8 10 13 14 16 19 20 21 21 23 26 27 26 27 29 29 29 30 30
44 38 45 35 31 27 28 31 19 23 19 18 17 15 14 13 13 10 6 6 5 4 3 2 1 1 2 4 6 8 10 12 14 16 18 20 22 23 23 24 26 27 27 28 29 29 30 30 31
32 43 42 42 33 35 31 33 24 23 23 22 19 16 15 14 13 10 7 6 6 6 5 3 3 3 3 5 6 8 11 13 15 17 19 20 22 24 24 24 26 26 27 28 29 30 30 30 32
24 29 40 45 32 35 35 35 30 22 24 25 22 17 16 13 11 9 8 6 6 8 7 5 4 4 4 6 6 8 11 13 16 17 20 22 24 24 24 24 26 26 27 28 30 30 32 32 33
25 29 35 35 35 36 37 37 34 27 27 29 23 19 16 12 11 11 11 10 9 8 7 7 7 7 7 8 9 10 10 13 14 17 20 22 23 24 24 25 25 27 27 29 30 31 32 30 33
30 27 33 29 28 38 33 39 38 34 32 27 27 20 17 14 14 13 12 12 11 11 9 9 9 9 9 9 9 9 10 12 14 17 20 22 23 24 25 26 26 27 27 29 30 31 33 33 33
33 23 26 31 32 35 32 44 38 36 33 33 27 24 18 15 14 13 13 12 11 11 10 10 10 10 10 9 9 9 12 13 16 17 17 19 22 23 25 26 27 28 28 29 31 31 32 32 34
30 25 25 27 27 29 36 39 40 35 37 32 28 24 21 17 15 13 14 13 12 12 12 11 11 11 11 11 11 12 13 12 13 15 17 18 21 23 24 26 27 28 28 29 31 31 32 32 32
23 22 22 24 25 30 29 35 44 33 37 32 28 24 22 19 16 13 11 11 12 12 12 12 12 12 11 11 11 11 11 11 13 15 17 20 20 23 25 26 27 28 30 30 30 30 31 32 32
30 23 29 29 29 29 24 29 30 26 28 31 27 25 21 18 17 15 14 12 12 12 12 12 12 12 11 10 10 10 11 12 15 18 21 22 23 24 26 27 28 29 29 29 29 30 30 32 32
32 29 31 31 26 25 20 29 29 28 23 26 26 23 21 19 19 17 15 13 12 11 11 11 11 11 11 11 11 11 11 14 16 19 19 22 23 24 26 27 27 28 29 28 29 30 30 31 32
32 33 24 24 24 26 25 27 29 25 24 21 22 20 20 19 18 16 14 12 11 10 10 9 9 10 12 11 12 14 14 17 17 18 19 21 23 24 26 26 27 28 28 29 29 30 31 31 32
32 24 28 25 30 32 28 28 26 20 21 18 18 21 20 17 16 15 14 12 10 8 8 9 10 10 13 14 14 15 18 17 18 18 19 21 23 24 25 25 26 27 28 29 29 30 32 32 32
29 32 32 28 27 28 29 28 20 22 16 15 14 12 15 16 15 13 11 9 8 8 8 9 10 13 14 14 17 18 17 18 18 19 20 21 22 24 24 25 25 26 28 30 30 31 32 32 32
26 27 27 31 30 28 28 27 20 19 12 10 10 10 9 9 8 8 8 8 8 10 12 12 15 14 14 12 12 13 15 18 19 20 21 22 22 22 22 24 26 27 28 29 31 31 32 32 32
Wind_Direction
273 273 272 260 248 249 244 257 260 250 246 257 266 234 261 271 247 259 259 241 77 79 93 106 97 92 47 14 51 78 78 69 61 38 33 25 33 42 50 49 43 43 40 38 38 33 15 338 334
262 267 265 253 245 248 246 262 250 252 260 265 258 247 235 254 283 296 263 245 82 74 90 87 83 85 73 54 49 51 52 46 36 20 17 12 21 24 37 47 48 43 38 37 41 25 360 342 335
262 261 252 249 240 243 252 259 261 261 259 245 249 252 250 251 303 305 282 84 72 66 62 69 77 80 72 61 51 46 41 30 5 348 354 1 10 18 24 28 45 44 48 37 30 17 360 343 335
264 264 258 242 241 249 254 266 261 261 251 245 249 261 270 267 279 287 85 87 74 40 48 77 84 87 68 64 54 40 26 8 349 338 347 358 10 16 24 31 35 33 36 22 27 14 7 356 347
258 259 245 241 239 249 254 268 259 254 257 252 244 261 262 261 286 71 95 84 72 67 66 72 80 84 63 50 39 26 12 360 346 337 347 4 16 22 27 31 34 33 31 26 25 17 7 1 355
252 252 242 237 240 247 255 260 255 254 257 258 254 268 262 265 267 98 108 97 74 77 77 75 75 72 64 59 42 20 5 0 2 0 0 6 13 19 24 26 26 23 14 12 22 22 17 8 1
252 246 239 237 243 246 253 255 252 251 255 256 261 262 264 253 243 157 127 130 79 93 82 84 67 44 35 31 28 19 12 10 14 15 14 14 16 17 18 21 20 15 13 18 21 23 22 18 7
254 246 236 239 240 244 258 256 254 247 254 266 261 261 261 244 218 170 152 115 247 208 188 82 46 22 25 18 10 11 14 12 13 13 12 12 18 24 29 28 22 9 5 11 16 16 14 13 13
251 236 235 237 241 251 255 253 254 257 259 260 265 266 274 161 161 153 158 236 238 242 242 75 326 26 15 37 19 5 8 15 15 22 23 23 21 13 16 13 11 9 9 13 17 16 12 7 16
237 230 234 247 245 249 253 252 252 252 252 259 266 273 292 156 163 152 147 173 181 180 249 247 265 311 1 355 35 22 16 33 30 13 10 3 0 1 4 22 23 25 19 15 17 11 9 11 359
234 233 244 247 244 252 253 253 253 250 251 255 257 262 233 169 178 176 201 193 184 191 253 264 69 48 50 33 41 24 14 1 0 360 354 358 359 5 10 0 10 7 20 9 10 5 3 356 356
236 234 240 244 242 251 250 258 253 249 264 263 262 252 190 175 184 198 211 216 197 208 226 227 95 71 59 20 10 25 29 22 21 24 12 4 4 2 1 3 6 13 8 2 1 358 355 354 351
231 233 238 244 243 248 251 252 254 254 253 261 263 254 224 211 204 215 222 220 228 231 207 149 114 74 37 359 0 4 10 22 11 14 12 6 1 2 1 360 358 355 355 356 352 350 349 347 345
235 236 235 242 242 247 247 251 252 259 256 255 255 256 248 231 210 222 233 234 229 232 206 198 237 304 5 9 357 5 12 6 8 8 7 7 6 360 356 355 353 352 350 349 349 346 345 346 345
242 233 235 238 240 246 248 246 242 258 257 250 253 257 250 242 227 229 239 237 221 228 217 223 247 307 335 348 359 4 360 1 4 1 3 359 357 353 352 351 349 348 348 346 345 347 346 345 345
235 232 230 233 238 243 244 242 242 253 254 250 252 257 251 243 236 238 234 231 214 221 201 194 252 333 328 330 353 6 6 2 358 356 354 352 353 352 352 349 346 345 347 346 344 345 345 344 344
230 232 229 233 233 240 237 240 244 245 253 252 252 254 251 244 241 235 224 238 237 239 205 179 226 325 344 347 343 340 345 347 349 351 351 351 352 351 351 350 349 348 348 347 346 346 346 345 345
232 228 230 230 232 235 236 239 246 246 248 254 253 251 250 244 239 227 229 234 243 248 251 247 267 289 311 323 333 337 338 342 346 347 350 351 351 350 352 352 351 351 350 350 349 348 348 348 345
241 233 231 228 236 235 237 239 244 249 243 253 251 249 248 242 229 228 235 234 244 253 259 267 275 288 302 313 320 326 331 336 341 345 346 347 347 349 350 351 350 352 352 351 350 348 344 345 346
239 236 236 236 239 238 236 240 243 245 243 242 249 247 244 237 227 233 240 246 250 257 265 274 283 290 296 308 316 324 335 339 343 346 347 347 349 349 351 351 351 351 350 349 349 348 345 346 348
244 244 235 239 238 242 240 243 243 245 244 247 247 249 246 235 238 239 242 249 255 262 271 279 289 296 301 309 319 330 337 341 342 345 347 348 350 350 349 350 350 350 350 348 348 348 346 344 346
234 252 249 243 238 238 238 242 241 240 244 245 249 248 247 239 242 242 247 252 258 268 279 287 294 301 307 312 313 316 320 326 335 341 354 352 351 350 350 350 349 350 349 347 347 348 346 346 343
244 247 252 251 242 247 241 244 243 240 242 244 247 247 244 243 243 243 250 256 266 272 279 288 297 304 309 311 314 318 322 336 346 346 352 354 352 350 349 349 347 348 349 348 346 347 347 347 345
250 245 253 252 249 247 243 240 242 243 244 244 245 245 243 242 245 250 257 262 270 278 284 291 296 306 315 321 325 326 333 341 345 348 345 344 347 347 344 346 347 346 346 346 346 347 348 347 345
240 240 241 246 245 248 247 245 251 250 253 250 242 241 243 245 246 250 255 262 271 279 287 293 299 305 316 325 332 336 342 346 344 342 340 335 339 338 339 343 343 344 345 346 348 349 349 347 347
234 239 239 242 244 246 254 250 252 260 267 258 254 244 243 245 250 252 256 263 271 281 290 297 302 309 317 325 328 335 341 338 337 342 341 338 338 335 339 341 343 345 346 348 349 349 349 349 347
235 238 245 252 261 252 253 260 267 263 265 264 248 244 244 246 250 254 259 264 271 280 292 300 306 317 318 320 329 331 331 334 335 342 344 337 341 338 338 341 344 346 348 350 350 349 347 347 346
243 240 241 249 244 247 253 259 262 268 264 262 258 245 243 246 250 255 260 263 271 282 291 304 313 316 317 318 325 325 331 338 332 338 340 339 338 338 341 344 346 350 352 351 348 346 347 346 347
241 238 241 245 253 252 252 260 278 275 275 266 259 254 245 245 248 249 250 258 268 283 296 305 313 321 311 314 329 323 327 334 337 343 342 343 343 342 345 348 353 352 348 347 347 347 347 347 347
253 245 242 243 250 256 262 264 286 288 289 281 263 256 251 246 242 236 235 245 261 281 292 299 303 311 307 318 328 336 342 337 336 337 339 343 347 353 354 351 349 348 347 347 346 347 347 347 348